Wetbulb
69.53 66.29 65.63 64.22 58.80 58.05 53.82 55.32 59.31 58.04 59.79 63.18 63.50 61.68 60.34 61.55 59.50 57.26 70.17 70.79 69.97 73.37 75.27 75.19 76.49 75.40 74.28 73.74 74.68 74.31 73.69 74.31 73.63 73.77 73.73 73.95 74.78 74.35 74.62 74.80 75.10 74.76 74.63 74.53 74.17 73.70 73.43 73.21 73.04
66.05 64.29 62.43 61.76 56.29 50.36 51.28 57.35 56.95 59.45 61.32 63.67 63.19 63.63 62.45 60.91 67.24 67.59 68.60 70.44 72.31 74.42 74.71 75.14 76.49 75.56 74.39 73.65 74.13 74.16 73.98 73.84 73.71 73.83 73.99 74.42 74.70 74.63 74.68 74.58 74.74 74.57 74.30 73.77 73.20 72.71 72.54 72.62 72.64
62.99 59.77 59.82 58.36 55.50 49.44 50.42 55.85 58.74 61.02 62.37 62.34 62.94 64.45 63.01 63.39 67.99 68.93 70.90 71.25 73.56 74.52 74.59 75.59 76.22 75.44 74.14 73.61 73.66 74.18 74.08 73.94 73.60 73.91 74.35 74.48 74.53 74.41 74.53 74.48 74.49 74.18 73.54 73.14 72.61 71.92 71.73 71.57 71.59
60.73 59.41 56.56 53.62 50.00 52.96 54.53 56.59 58.62 60.28 62.47 63.83 63.46 61.47 66.89 69.85 68.71 70.37 72.23 72.04 72.95 73.70 74.88 75.99 76.24 75.54 73.67 73.61 73.54 73.76 73.71 73.56 73.76 74.25 74.38 74.43 74.51 74.51 74.51 74.36 74.12 73.53 72.99 72.33 71.60 71.14 70.71 71.01 71.32
57.64 56.64 53.49 51.20 49.91 51.72 55.16 58.17 60.81 60.05 60.84 63.29 63.80 61.75 64.40 69.03 70.89 71.53 71.75 72.10 71.68 73.06 74.92 75.44 75.79 75.36 74.63 73.55 73.56 73.44 73.78 73.54 74.16 74.15 74.23 74.18 74.11 74.39 74.24 73.94 73.57 73.14 72.51 71.88 71.52 71.27 71.51 71.88 72.11
57.27 55.98 52.26 49.79 50.33 52.37 54.88 61.56 61.51 60.72 61.33 62.64 63.08 62.52 64.59 69.61 69.80 70.67 71.35 71.33 71.92 73.12 74.32 74.37 74.83 74.89 74.31 73.48 73.36 73.36 74.12 73.74 73.89 74.31 74.06 74.06 73.99 73.94 73.87 73.64 73.26 72.72 72.47 72.03 71.86 72.17 72.53 72.70 73.11
56.55 55.57 51.08 49.73 50.35 51.94 54.73 62.40 61.28 61.21 61.15 62.86 65.24 60.83 65.69 68.23 69.88 70.67 70.38 70.70 71.46 72.84 74.86 74.42 73.58 73.47 73.98 73.61 73.37 73.44 73.94 73.77 73.92 74.27 74.27 73.87 73.82 73.69 73.82 73.57 73.36 72.90 72.68 72.73 72.82 72.85 72.95 73.29 73.69
56.12 56.07 50.47 50.51 50.53 50.94 55.26 60.74 62.70 61.83 61.31 66.33 65.99 61.47 62.24 68.47 69.26 70.15 69.49 69.65 71.87 71.93 73.56 74.42 74.18 72.82 72.94 73.72 73.44 73.39 73.56 73.77 73.62 73.57 73.67 73.74 73.84 73.82 73.59 74.06 73.34 73.34 73.19 73.33 73.39 73.56 73.87 74.19 74.12
55.09 53.82 50.99 50.40 50.44 52.38 54.88 58.03 63.19 64.34 62.85 64.32 65.19 65.24 67.73 68.67 68.81 67.38 67.10 67.47 68.57 70.46 71.58 72.85 73.12 72.81 72.90 72.81 73.10 73.25 73.20 72.97 73.42 73.59 73.39 74.07 73.90 73.82 73.67 74.14 73.27 73.22 73.22 73.24 73.59 73.99 74.84 74.73 74.74
53.22 52.79 52.36 53.62 53.78 53.51 53.39 58.82 61.20 61.87 61.63 62.52 63.77 67.80 68.22 67.77 66.31 64.58 63.75 64.25 65.61 66.52 68.31 70.96 72.07 71.82 72.29 71.96 72.65 72.98 72.77 73.31 73.49 73.75 73.96 73.86 73.74 73.68 72.93 72.91 72.75 72.95 73.27 73.62 73.87 73.92 73.94 74.00 73.89
51.29 52.11 54.98 54.54 54.50 54.63 52.71 57.63 58.14 59.33 58.64 59.67 62.57 65.61 67.00 66.97 66.68 65.79 65.00 64.72 64.64 66.01 68.68 69.26 70.16 71.90 71.98 71.65 72.49 72.59 72.54 73.10 73.37 73.92 74.03 73.90 73.20 73.14 72.57 72.37 72.11 72.28 71.76 71.60 72.65 73.33 73.71 73.60 73.70
48.64 51.72 55.05 56.16 54.38 52.91 54.09 56.03 54.65 58.64 60.98 65.94 66.76 66.62 66.49 66.63 65.50 64.82 66.99 68.31 67.56 65.50 66.82 68.63 69.12 69.23 70.50 71.66 71.56 71.38 71.63 72.06 72.47 72.90 73.66 73.24 72.46 72.28 71.83 70.96 70.84 71.43 71.78 72.62 73.25 73.09 73.72 73.69 73.80
47.67 48.46 51.65 53.69 51.88 53.59 53.73 52.40 52.46 54.71 58.67 60.67 60.89 60.16 59.90 60.52 60.82 61.89 63.16 64.27 66.13 68.80 67.70 68.06 70.05 70.08 70.49 70.36 70.96 70.93 70.44 70.68 71.84 71.79 72.84 72.80 72.06 71.63 71.44 70.87 70.82 70.96 71.53 72.26 72.78 73.08 73.49 73.43 73.46
49.13 48.37 49.96 52.12 51.62 53.05 48.89 49.00 51.05 52.98 57.51 56.33 56.37 56.11 56.58 56.36 57.64 58.42 59.05 59.61 61.96 65.00 67.72 70.04 69.06 70.49 70.70 70.44 70.60 70.38 70.47 70.66 71.07 71.39 71.63 72.46 72.33 71.73 70.83 70.43 69.95 69.85 70.68 72.30 72.33 72.80 72.81 72.71 73.22
48.02 46.88 50.15 49.14 51.21 52.31 53.01 45.31 45.43 51.14 53.91 52.98 53.03 53.10 52.95 53.53 54.12 53.67 54.20 54.47 55.82 58.06 62.60 66.18 69.21 70.01 70.20 69.99 70.32 70.03 70.13 69.84 70.22 70.65 71.67 71.90 72.21 71.79 71.37 69.98 69.58 69.55 70.59 71.22 72.55 73.22 73.15 72.84 73.94
46.80 47.24 45.35 47.54 50.86 49.91 50.86 39.76 45.99 50.44 50.62 49.73 50.83 51.35 50.74 50.05 50.33 51.42 51.54 52.81 52.95 54.13 54.95 58.48 61.59 64.91 68.59 69.43 69.42 69.29 69.46 69.30 69.20 69.59 70.38 70.81 71.16 71.52 71.07 69.65 69.29 70.12 70.75 71.19 72.36 72.74 72.52 73.00 73.80
45.93 43.61 44.72 45.49 47.99 48.01 48.82 41.09 45.33 48.37 48.00 46.50 46.82 47.24 47.17 46.76 47.17 47.81 48.94 49.28 50.35 50.81 51.60 53.15 56.04 56.00 59.30 69.40 69.43 69.32 69.91 69.29 69.01 69.54 69.40 70.14 70.43 70.64 70.57 69.74 69.78 71.27 70.70 71.56 72.49 72.53 73.14 72.78 73.85
42.96 44.73 42.88 42.23 44.15 45.50 42.89 41.14 43.11 44.66 44.53 43.25 43.56 44.09 44.20 44.39 44.77 46.81 47.41 47.94 48.38 48.49 49.53 49.55 52.07 51.92 54.59 57.96 62.72 69.23 69.50 70.03 70.24 70.18 70.38 70.77 70.47 70.54 70.70 70.47 71.14 71.93 71.33 71.93 72.23 72.55 73.49 73.15 73.38
46.48 46.45 41.24 43.33 45.98 42.82 41.00 39.72 40.36 42.43 42.52 41.73 41.91 42.13 42.44 43.35 45.45 46.32 46.65 47.18 47.10 47.54 47.19 47.39 47.02 48.92 48.73 52.18 54.57 61.76 63.14 70.10 70.63 70.97 71.56 71.62 71.74 71.77 72.17 71.99 72.28 72.43 71.78 72.68 73.29 72.75 72.48 72.54 73.12
47.91 44.24 42.23 43.28 45.33 43.07 40.90 38.49 40.14 41.01 40.59 40.83 40.65 40.96 41.21 42.39 43.61 44.49 45.40 45.68 45.69 45.44 45.94 46.47 46.48 46.87 45.82 46.16 50.05 54.21 57.54 65.57 69.02 68.62 70.57 71.58 71.74 72.36 72.72 72.81 73.02 73.87 71.81 72.54 72.86 72.80 71.38 72.01 72.28
46.78 46.14 43.26 42.24 42.92 44.17 42.78 39.20 40.17 41.49 41.78 41.97 41.65 41.90 41.85 41.27 41.27 42.70 43.66 44.55 45.14 44.76 45.24 45.83 46.13 46.69 46.69 45.96 47.06 48.77 54.68 55.77 60.05 59.62 61.43 64.86 68.48 69.48 72.18 72.43 72.57 72.75 72.39 70.94 71.80 72.88 72.61 70.05 71.87
42.90 48.97 47.00 42.70 42.97 40.18 44.14 37.93 38.54 40.30 39.91 40.14 40.23 40.32 40.55 40.98 41.97 42.57 43.07 43.37 44.02 44.53 45.88 46.34 46.56 46.60 46.84 47.28 46.56 46.60 45.55 44.92 48.09 50.99 53.75 55.58 61.06 65.32 64.97 67.53 68.96 70.90 71.29 70.85 71.88 72.62 72.46 72.20 70.12
46.90 48.91 46.95 45.56 45.59 43.81 41.54 41.19 37.14 39.70 37.26 37.66 38.93 39.56 40.17 40.84 41.17 41.37 42.17 42.80 44.22 45.22 45.28 46.16 46.55 46.66 46.84 46.85 46.79 46.03 45.97 46.41 47.48 48.30 48.37 50.16 54.70 58.28 60.22 62.19 64.67 67.41 69.24 70.92 71.65 71.95 72.13 71.99 71.24
49.06 47.61 46.73 46.79 45.39 40.64 39.91 40.53 36.03 37.36 34.96 37.20 38.67 39.06 39.50 39.89 40.99 41.75 42.90 43.65 43.94 44.86 45.16 45.62 45.80 46.23 46.76 46.64 46.81 46.13 45.65 45.61 45.80 46.62 47.10 48.62 49.77 52.26 54.02 55.48 57.81 61.85 65.98 66.81 69.21 71.17 71.78 71.81 71.48
48.83 46.03 39.62 38.28 38.62 39.12 39.34 39.18 35.73 36.24 36.69 36.75 36.64 37.78 39.17 40.11 40.46 40.84 41.21 42.14 43.17 43.56 44.22 44.81 45.39 45.18 46.12 46.12 46.18 46.19 46.01 45.93 45.77 45.97 46.14 46.45 47.51 48.41 50.74 52.37 53.42 55.50 60.06 63.98 67.45 69.77 71.81 71.88 70.98
48.37 47.87 43.20 36.50 37.26 39.73 39.53 36.56 34.13 38.01 38.55 38.50 37.90 37.93 39.05 39.38 40.41 40.78 41.32 42.12 42.66 43.32 43.95 44.55 44.46 44.44 45.32 45.67 45.70 46.21 46.60 45.69 45.62 46.15 45.78 46.25 47.01 48.12 49.65 50.48 51.07 51.98 54.01 56.95 60.43 62.30 69.20 71.45 70.01
46.21 45.53 46.32 43.26 42.27 41.04 35.66 32.41 36.35 38.22 37.22 37.12 36.41 37.00 37.20 38.66 39.70 40.35 41.59 42.12 42.66 43.48 43.78 44.34 44.17 44.36 44.78 44.83 45.19 45.39 45.67 45.57 44.65 44.52 45.09 46.04 47.57 48.54 49.72 49.27 49.22 50.65 51.80 53.38 56.38 57.70 61.26 67.98 67.97
46.62 46.00 43.40 44.43 37.99 36.87 34.73 33.52 35.57 33.75 34.77 35.20 34.90 35.71 36.92 38.66 39.59 40.61 41.44 41.86 43.27 43.99 44.55 44.70 44.35 43.81 44.49 44.73 44.39 44.13 44.99 45.79 45.79 45.17 44.31 44.27 45.68 47.20 47.76 48.28 48.07 47.55 49.66 51.98 53.60 55.79 57.15 63.14 66.29
43.71 43.57 41.95 43.04 40.30 39.20 38.00 35.77 35.90 34.77 34.53 33.31 34.86 36.05 37.12 38.19 39.23 40.30 41.32 42.51 43.09 44.15 44.30 43.94 44.73 44.46 44.48 44.88 44.41 45.01 44.40 44.74 44.87 43.93 44.17 43.90 44.60 44.32 44.98 47.19 48.07 46.98 46.42 48.99 51.73 54.17 55.62 59.00 63.08
41.34 39.00 39.89 41.06 38.62 37.55 39.30 33.24 36.31 35.82 34.57 35.09 34.97 36.23 38.04 39.09 39.74 40.75 41.41 42.29 42.62 43.07 43.87 43.91 44.37 44.21 44.56 44.82 45.13 44.85 43.93 44.64 43.33 42.94 42.98 43.68 43.19 44.81 45.01 46.39 47.55 47.39 46.45 46.61 49.77 51.87 54.14 59.26 59.64
MSLP
1011.39 1011.43 1011.41 1010.78 1010.27 1009.24 1008.96 1009.28 1009.51 1008.82 1008.70 1008.84 1008.70 1008.63 1008.87 1009.35 1009.79 1011.07 1011.95 1012.36 1012.57 1012.87 1013.38 1014.11 1014.71 1015.03 1015.32 1015.65 1015.81 1016.04 1016.26 1016.55 1016.71 1016.81 1016.89 1017.00 1017.14 1017.18 1017.29 1017.32 1017.30 1017.45 1017.46 1017.51 1017.64 1017.71 1017.69 1017.68 1017.76
1011.44 1011.55 1011.15 1010.26 1009.33 1008.77 1008.86 1009.11 1008.89 1008.82 1008.63 1008.87 1008.86 1008.68 1008.92 1009.36 1010.26 1011.21 1011.82 1012.48 1012.55 1013.05 1013.68 1014.21 1014.71 1015.17 1015.51 1015.86 1016.01 1016.24 1016.50 1016.71 1016.93 1017.11 1017.19 1017.23 1017.38 1017.42 1017.48 1017.55 1017.66 1017.70 1017.80 1017.77 1017.87 1017.96 1017.98 1017.93 1017.90
1011.32 1011.25 1010.40 1009.82 1009.37 1008.62 1008.61 1008.73 1008.79 1008.49 1008.50 1008.52 1008.51 1008.63 1009.17 1010.06 1010.76 1011.27 1012.06 1012.63 1012.83 1013.41 1014.00 1014.50 1014.92 1015.41 1015.73 1016.05 1016.30 1016.39 1016.63 1016.90 1017.11 1017.29 1017.31 1017.42 1017.53 1017.60 1017.70 1017.74 1017.81 1017.92 1018.03 1017.98 1018.09 1018.19 1018.22 1018.15 1018.10
1010.92 1010.71 1010.65 1009.67 1008.93 1008.76 1008.68 1008.53 1008.60 1008.37 1008.29 1008.29 1008.64 1008.95 1010.11 1011.04 1011.08 1011.55 1012.28 1012.78 1013.23 1013.82 1014.31 1014.79 1015.17 1015.65 1015.95 1016.21 1016.45 1016.68 1016.79 1017.01 1017.06 1017.35 1017.51 1017.55 1017.71 1017.77 1017.85 1017.94 1018.00 1018.03 1018.18 1018.23 1018.32 1018.38 1018.37 1018.22 1018.14
1010.77 1010.30 1009.61 1009.26 1008.94 1008.72 1008.54 1008.46 1008.48 1008.16 1008.15 1008.18 1008.72 1009.27 1010.20 1011.52 1012.07 1012.44 1012.73 1012.94 1013.17 1014.04 1014.37 1014.97 1015.53 1015.95 1016.17 1016.40 1016.56 1016.79 1017.01 1017.19 1017.25 1017.49 1017.63 1017.68 1017.86 1018.00 1018.03 1018.09 1018.14 1018.17 1018.29 1018.35 1018.42 1018.48 1018.47 1018.29 1018.13
1010.04 1010.38 1009.46 1008.84 1008.73 1008.57 1008.39 1008.53 1008.48 1008.30 1008.35 1008.37 1008.80 1009.56 1010.75 1011.93 1012.23 1012.71 1013.15 1013.36 1013.46 1014.16 1014.44 1015.07 1015.70 1016.08 1016.42 1016.63 1016.83 1016.93 1017.07 1017.26 1017.40 1017.67 1017.89 1017.91 1017.96 1018.12 1018.20 1018.16 1018.17 1018.26 1018.37 1018.34 1018.34 1018.40 1018.43 1018.30 1018.09
1009.76 1009.83 1009.49 1009.13 1008.74 1008.25 1008.28 1008.65 1008.21 1008.12 1008.19 1008.24 1008.67 1009.37 1010.77 1011.47 1012.40 1012.97 1013.40 1013.94 1014.38 1014.46 1014.51 1014.99 1015.53 1016.04 1016.42 1016.76 1016.90 1017.06 1017.14 1017.32 1017.52 1017.77 1017.87 1017.98 1018.10 1018.14 1018.17 1018.17 1018.14 1018.18 1018.30 1018.30 1018.27 1018.30 1018.30 1018.17 1017.97
1010.00 1009.82 1009.48 1009.28 1008.88 1008.39 1008.24 1008.31 1008.31 1008.06 1008.28 1008.56 1008.80 1009.11 1010.02 1011.19 1012.48 1013.23 1013.72 1014.15 1014.47 1014.74 1014.71 1014.83 1015.19 1015.63 1015.92 1016.26 1016.73 1017.02 1017.15 1017.31 1017.46 1017.65 1017.87 1018.03 1018.09 1018.08 1018.07 1018.14 1018.10 1018.10 1018.21 1018.27 1018.27 1018.17 1018.10 1017.98 1017.78
1010.23 1009.69 1009.18 1009.28 1009.12 1008.60 1008.31 1008.18 1008.17 1008.49 1008.37 1008.58 1008.88 1009.38 1010.19 1011.51 1012.64 1013.34 1014.03 1014.56 1014.67 1014.94 1015.33 1015.18 1015.28 1015.60 1015.78 1015.99 1016.46 1017.00 1017.21 1017.44 1017.63 1017.68 1017.84 1018.04 1017.62 1017.66 1017.72 1017.75 1017.92 1017.87 1017.93 1018.02 1018.05 1017.98 1017.92 1017.84 1017.53
1009.67 1009.61 1009.31 1009.61 1009.41 1008.99 1008.82 1008.71 1008.71 1008.55 1008.87 1009.52 1010.10 1011.68 1013.13 1014.04 1014.46 1014.87 1015.19 1015.59 1016.04 1016.19 1016.71 1017.08 1016.85 1016.95 1017.04 1017.06 1016.95 1017.05 1017.09 1017.23 1017.40 1017.50 1017.62 1017.71 1017.67 1017.81 1017.80 1017.77 1017.81 1017.73 1017.65 1017.72 1017.74 1017.74 1017.59 1017.40 1016.74
1010.01 1009.42 1009.42 1009.52 1009.58 1009.47 1009.81 1010.13 1012.01 1010.67 1010.80 1012.13 1011.70 1012.73 1013.75 1014.45 1014.97 1015.25 1015.63 1015.95 1016.15 1016.35 1016.86 1017.29 1017.71 1017.78 1017.71 1017.41 1017.60 1017.78 1017.84 1017.81 1017.95 1017.96 1017.87 1017.76 1017.73 1017.69 1017.69 1017.53 1017.36 1017.28 1017.27 1017.07 1017.02 1016.98 1016.86 1016.75 1016.75
1009.88 1009.86 1009.52 1009.36 1009.96 1010.73 1011.79 1012.66 1013.60 1013.51 1013.92 1013.65 1013.23 1013.93 1014.65 1014.99 1015.73 1016.18 1015.97 1015.69 1015.86 1016.18 1016.52 1016.89 1017.29 1017.71 1017.78 1017.64 1017.61 1017.58 1017.84 1017.92 1018.00 1018.03 1018.18 1018.17 1018.21 1017.96 1017.89 1017.54 1017.32 1017.36 1017.18 1017.16 1017.08 1016.73 1016.72 1016.67 1016.58
1009.80 1009.81 1010.00 1010.24 1011.62 1012.86 1013.70 1014.84 1016.14 1016.24 1016.97 1016.04 1015.41 1015.07 1016.30 1016.97 1017.43 1017.53 1017.60 1017.43 1017.23 1016.44 1016.06 1016.19 1016.50 1017.00 1017.27 1017.58 1017.41 1017.50 1017.64 1017.70 1017.80 1017.87 1017.98 1017.97 1017.79 1017.76 1017.72 1017.51 1017.44 1017.17 1017.15 1017.07 1016.98 1016.82 1016.68 1016.57 1016.35
1009.56 1009.95 1010.87 1011.87 1012.09 1013.56 1015.12 1016.50 1016.39 1018.74 1018.66 1017.49 1017.23 1017.31 1017.98 1018.50 1019.00 1018.56 1018.57 1018.84 1018.46 1018.01 1017.35 1016.49 1016.58 1016.67 1016.74 1016.72 1017.31 1017.51 1017.50 1017.54 1017.54 1017.61 1017.59 1017.76 1017.70 1017.55 1017.43 1017.31 1017.27 1017.30 1017.16 1016.97 1016.88 1016.62 1016.51 1016.27 1016.18
1009.93 1010.38 1011.29 1013.22 1013.35 1013.82 1014.66 1017.42 1020.27 1020.73 1020.22 1019.28 1019.31 1019.45 1019.65 1020.10 1020.16 1020.32 1020.88 1020.55 1020.32 1019.80 1019.04 1017.75 1016.84 1016.68 1016.86 1016.75 1016.61 1016.73 1017.04 1017.10 1017.25 1017.23 1017.34 1017.37 1017.43 1017.37 1017.39 1017.09 1016.88 1016.65 1016.63 1016.55 1016.37 1016.17 1016.03 1016.06 1015.79
1010.03 1010.65 1011.67 1014.40 1014.12 1015.40 1015.25 1020.59 1022.05 1022.01 1021.54 1021.26 1021.19 1021.08 1021.17 1021.43 1021.86 1022.00 1021.99 1021.84 1021.69 1021.18 1020.43 1019.70 1018.80 1017.94 1017.29 1016.67 1016.36 1016.23 1016.37 1016.63 1016.64 1016.78 1016.76 1016.90 1017.06 1017.16 1017.08 1016.74 1016.47 1016.32 1016.45 1016.36 1016.32 1016.16 1015.94 1015.82 1015.71
1010.38 1010.91 1012.65 1014.90 1015.80 1016.02 1016.75 1021.51 1023.24 1023.31 1022.97 1022.90 1022.98 1022.86 1022.78 1022.72 1023.06 1023.45 1023.18 1022.80 1022.63 1022.34 1021.75 1020.87 1020.02 1019.25 1018.37 1016.74 1016.29 1016.14 1016.02 1015.98 1015.89 1016.02 1016.03 1016.09 1016.19 1016.35 1016.42 1016.10 1015.87 1016.03 1015.82 1015.69 1015.69 1015.60 1015.68 1015.58 1015.60
1010.24 1012.06 1014.60 1016.17 1018.67 1018.13 1019.97 1022.38 1023.89 1024.20 1023.88 1023.93 1024.12 1024.15 1024.21 1024.08 1024.32 1024.56 1024.47 1024.10 1023.76 1023.32 1022.80 1022.35 1021.42 1020.71 1019.80 1018.58 1017.56 1016.20 1015.93 1015.74 1015.49 1015.41 1015.35 1015.45 1015.41 1015.46 1015.66 1015.49 1015.49 1015.51 1015.32 1015.19 1015.10 1015.10 1015.04 1014.99 1015.10
1010.93 1012.51 1014.98 1017.46 1018.71 1019.75 1021.65 1022.82 1024.27 1024.78 1024.48 1024.48 1024.82 1025.00 1025.08 1025.09 1025.30 1025.31 1025.26 1025.00 1024.61 1024.18 1023.63 1023.22 1022.65 1021.92 1021.36 1020.03 1018.97 1017.52 1016.95 1015.81 1015.22 1015.04 1014.99 1014.85 1014.77 1014.78 1014.89 1014.72 1014.74 1014.81 1014.68 1014.40 1014.52 1014.68 1014.80 1014.77 1015.07
1011.31 1012.96 1015.57 1017.48 1018.81 1019.77 1022.03 1023.15 1024.60 1025.10 1025.42 1025.70 1025.86 1025.85 1025.71 1025.64 1025.43 1025.62 1025.59 1025.38 1025.00 1024.93 1024.78 1024.42 1024.13 1023.58 1022.94 1021.86 1021.14 1019.91 1018.19 1016.88 1015.95 1015.75 1015.32 1015.07 1014.95 1014.62 1014.27 1013.94 1013.77 1013.79 1013.72 1013.67 1013.74 1014.03 1013.93 1014.07 1014.45
1011.29 1011.92 1014.16 1015.87 1018.43 1019.98 1020.10 1022.50 1023.90 1025.02 1025.68 1026.12 1026.40 1026.69 1026.59 1026.62 1026.16 1026.10 1026.12 1026.00 1025.73 1025.45 1025.41 1025.15 1024.94 1024.34 1023.47 1022.78 1021.95 1020.40 1018.50 1018.07 1017.10 1016.94 1016.60 1016.36 1015.90 1015.54 1014.76 1014.11 1014.28 1014.12 1013.64 1013.48 1013.62 1013.61 1013.44 1013.16 1013.65
1010.45 1011.38 1012.88 1014.69 1015.73 1017.39 1018.88 1020.62 1023.27 1024.57 1025.52 1026.19 1026.63 1026.97 1027.12 1027.16 1027.02 1027.03 1026.60 1026.12 1026.04 1026.05 1025.90 1025.51 1025.30 1024.92 1024.25 1023.71 1022.67 1021.82 1021.24 1020.76 1020.12 1019.34 1018.44 1017.66 1016.89 1016.07 1015.42 1014.25 1014.54 1014.44 1013.78 1012.97 1013.16 1013.05 1013.04 1013.09 1012.76
1008.92 1010.05 1011.39 1013.18 1014.35 1015.62 1018.01 1019.42 1022.79 1024.58 1025.59 1026.68 1027.28 1027.74 1028.02 1027.95 1027.71 1027.50 1027.21 1026.88 1026.63 1026.23 1025.66 1025.43 1025.34 1024.97 1024.43 1023.84 1023.31 1022.87 1022.44 1021.90 1020.91 1020.06 1019.16 1018.33 1017.53 1017.21 1016.36 1015.71 1015.34 1014.32 1013.50 1012.73 1012.54 1012.51 1012.55 1012.34 1012.35
1009.34 1010.80 1012.32 1013.40 1013.78 1015.00 1017.47 1019.28 1022.61 1024.73 1026.59 1027.39 1027.95 1028.36 1028.53 1028.34 1028.17 1028.03 1027.68 1027.16 1026.64 1026.12 1025.66 1025.44 1025.19 1024.89 1024.66 1024.35 1024.00 1023.63 1022.97 1022.13 1021.17 1020.35 1019.47 1018.34 1017.72 1017.22 1016.97 1016.61 1015.85 1014.79 1013.88 1013.13 1012.43 1011.94 1011.73 1011.50 1011.59
1009.25 1009.90 1011.41 1012.58 1013.08 1014.47 1017.87 1019.88 1023.18 1025.83 1027.34 1028.16 1028.57 1028.78 1028.86 1028.80 1028.59 1028.33 1027.94 1027.52 1027.15 1026.59 1026.18 1025.72 1025.38 1024.86 1024.60 1024.28 1023.90 1023.50 1023.06 1022.48 1021.67 1020.94 1019.91 1019.13 1017.90 1017.17 1016.59 1016.43 1015.67 1014.95 1014.27 1013.39 1012.39 1011.53 1010.74 1010.40 1010.32
1009.14 1009.13 1008.95 1010.18 1011.96 1014.31 1017.96 1020.64 1023.92 1026.53 1027.82 1028.49 1028.87 1028.95 1028.88 1028.77 1028.67 1028.54 1028.45 1028.12 1027.73 1027.34 1026.93 1026.41 1025.93 1025.35 1024.83 1024.36 1023.86 1023.41 1022.87 1022.26 1021.72 1021.12 1020.55 1019.57 1018.57 1017.49 1016.92 1016.29 1015.74 1015.02 1014.31 1013.39 1012.59 1011.42 1010.42 1009.57 1009.43
1009.52 1009.57 1010.27 1010.35 1012.47 1014.19 1018.29 1022.35 1025.05 1026.59 1027.65 1028.39 1028.84 1029.13 1029.25 1029.36 1029.23 1029.00 1028.70 1028.42 1027.93 1027.39 1026.97 1026.47 1026.03 1025.59 1025.03 1024.51 1023.98 1023.47 1022.90 1022.32 1021.71 1021.16 1020.55 1019.65 1018.69 1017.37 1016.40 1016.01 1015.38 1014.65 1013.84 1013.18 1012.24 1011.15 1010.28 1008.98 1008.83
1010.48 1010.94 1010.85 1010.97 1011.96 1014.03 1017.75 1020.94 1023.14 1026.11 1027.42 1028.42 1028.96 1029.28 1029.48 1029.56 1029.28 1029.01 1028.69 1028.39 1027.94 1027.53 1027.03 1026.66 1026.22 1025.77 1025.33 1024.83 1024.36 1023.60 1022.91 1022.23 1021.60 1020.90 1020.13 1019.38 1018.43 1017.43 1016.45 1015.50 1014.77 1014.13 1013.52 1012.66 1011.77 1010.46 1009.56 1008.77 1007.55
1012.16 1012.04 1012.37 1012.41 1013.27 1013.93 1016.68 1020.69 1024.45 1026.26 1027.74 1028.53 1029.35 1029.77 1029.58 1029.60 1029.38 1029.10 1028.82 1028.52 1028.07 1027.63 1027.12 1026.56 1026.09 1025.62 1025.08 1024.67 1024.35 1023.69 1023.09 1022.44 1021.52 1020.74 1019.86 1018.98 1018.05 1017.13 1016.17 1015.13 1014.00 1013.21 1012.62 1012.13 1011.05 1009.93 1008.82 1007.91 1006.95
1014.36 1014.44 1014.16 1013.53 1014.50 1015.86 1017.62 1022.29 1025.51 1026.97 1028.30 1029.04 1029.14 1030.01 1029.69 1029.62 1029.36 1029.14 1028.90 1028.58 1028.16 1027.76 1027.23 1026.55 1026.11 1025.55 1025.14 1024.74 1024.08 1023.42 1022.92 1022.14 1021.30 1020.47 1019.55 1018.55 1017.52 1016.53 1015.50 1014.38 1013.15 1012.13 1011.33 1010.80 1010.09 1008.97 1007.99 1006.94 1006.22
Wind_Speed
7 5 1 2 2 1 4 6 3 3 1 1 4 3 1 2 3 4 3 9 11 17 16 16 16 16 16 15 15 14 14 13 14 14 15 14 12 13 12 11 11 11 12 11 10 9 8 8 7
6 3 1 0 2 5 5 2 5 2 3 2 3 3 2 1 2 4 8 7 15 16 13 14 16 14 16 15 15 14 14 14 14 14 14 13 12 11 11 10 10 10 9 9 8 7 6 6 5
4 0 2 2 2 6 5 1 1 2 3 2 3 2 2 4 4 5 5 11 17 15 14 11 16 13 15 15 15 14 14 13 14 13 12 11 11 10 8 8 8 8 7 6 6 5 4 4 3
2 2 3 2 5 2 5 6 2 0 1 3 1 4 5 6 2 5 13 16 17 13 13 13 15 12 14 14 14 14 14 13 14 12 11 11 9 8 7 6 6 5 5 4 3 3 2 3 4
2 0 2 2 3 4 4 7 4 4 1 3 1 2 4 5 7 11 13 16 16 14 12 13 13 12 13 13 14 13 13 12 11 11 10 10 8 7 5 4 4 3 2 1 1 2 3 4 6
2 1 2 3 4 4 5 5 2 2 1 3 4 3 4 5 7 10 12 13 13 14 12 10 11 10 10 12 12 12 11 12 11 10 9 8 8 6 5 5 4 2 1 2 2 3 4 5 7
1 0 1 3 4 4 8 4 3 3 2 3 6 3 3 4 8 11 12 12 11 13 12 11 11 10 11 10 11 11 11 10 9 8 8 8 7 7 6 6 5 4 3 4 5 5 5 6 8
3 1 3 2 2 4 8 5 5 3 6 3 1 2 3 8 12 12 12 12 13 12 12 12 11 12 11 11 12 12 12 10 11 10 9 9 8 8 8 6 6 5 5 6 7 8 7 7 8
2 3 6 1 1 5 10 8 2 2 4 2 2 1 5 17 15 14 11 8 8 9 9 9 10 10 10 10 11 12 13 12 11 11 11 8 7 8 8 3 6 8 7 7 8 8 8 9 11
4 6 6 2 1 7 10 5 7 4 4 7 4 17 17 14 10 8 4 3 2 1 1 4 5 5 6 4 6 9 8 8 8 9 8 8 7 6 6 6 8 9 9 9 9 9 8 9 5
4 10 7 3 7 9 9 13 29 22 15 17 13 16 15 15 12 9 7 7 6 4 3 1 4 5 6 5 3 3 3 4 5 8 8 7 6 6 6 5 5 5 4 5 5 5 5 6 6
6 5 9 9 4 6 11 8 31 30 15 18 22 22 21 20 19 18 13 11 6 3 2 5 4 4 4 4 4 4 4 4 5 6 7 6 5 6 6 5 5 5 4 6 5 5 6 7 6
6 5 7 8 14 23 26 25 30 29 21 23 26 30 27 23 22 21 19 20 18 12 4 8 9 9 7 7 6 6 5 5 7 6 8 7 7 6 7 6 6 5 5 5 6 7 7 8 8
8 6 8 15 16 16 27 19 22 23 19 27 28 29 27 27 24 24 26 23 22 20 19 9 8 9 9 9 7 6 6 6 7 7 8 9 8 7 7 7 6 6 6 6 6 7 7 6 6
3 5 5 24 7 2 5 31 21 17 18 25 26 26 27 27 27 26 22 22 23 19 21 21 5 6 9 10 8 8 7 7 7 8 9 10 10 9 9 7 7 7 6 8 7 7 5 6 5
3 3 8 17 7 9 8 10 16 16 17 22 23 22 23 27 26 24 23 22 22 22 22 20 18 18 13 11 8 7 8 8 8 8 8 10 11 11 10 9 8 7 6 6 7 6 6 6 6
1 5 3 6 19 5 8 13 13 15 17 19 19 20 20 22 24 23 24 23 22 22 22 22 21 21 19 16 7 8 10 9 8 8 8 10 11 12 10 9 8 9 7 7 7 7 6 6 6
6 8 10 10 15 28 25 20 14 15 17 18 18 18 19 20 22 20 22 21 21 22 21 21 19 23 19 12 12 7 7 8 8 8 8 10 9 11 10 10 10 9 8 8 9 10 7 7 6
9 10 18 18 8 19 19 19 15 14 18 19 19 19 19 19 18 19 20 20 20 22 23 23 22 21 16 14 14 8 9 8 7 7 12 12 11 11 10 9 10 10 10 11 10 10 10 8 5
13 24 16 10 14 17 16 18 14 15 17 17 17 18 20 20 20 21 21 21 21 21 21 21 21 19 15 12 12 7 9 8 7 9 10 8 11 12 11 12 11 11 10 11 11 12 10 9 8
15 17 18 14 9 17 20 10 7 10 14 15 17 16 18 20 21 22 21 21 20 21 20 19 20 20 18 18 11 11 6 10 8 12 11 15 15 14 13 10 11 11 8 10 9 11 14 11 9
12 16 21 26 13 8 17 6 4 3 11 16 17 18 18 19 19 19 21 21 21 19 17 18 18 18 17 19 15 17 10 11 10 11 11 14 16 12 11 11 12 11 8 7 10 10 12 11 12
4 28 26 23 9 12 10 5 6 1 4 13 15 16 16 17 17 19 19 19 19 18 18 17 19 18 19 19 18 14 14 11 11 10 14 12 11 13 14 13 13 12 10 10 11 12 12 10 11
17 21 10 13 2 7 3 6 6 4 3 9 12 13 15 16 16 16 17 17 18 19 19 18 20 19 19 18 17 16 17 17 14 15 13 12 12 10 12 13 13 13 12 13 13 13 15 13 10
9 18 6 6 7 4 4 5 7 8 5 8 10 12 13 14 15 16 17 17 17 20 20 18 21 20 20 20 19 18 17 16 16 16 14 18 14 12 12 16 13 12 12 16 14 14 15 14 12
14 8 6 9 7 5 0 4 7 8 5 6 7 9 12 14 15 16 16 15 16 17 18 18 19 20 20 20 20 18 18 13 13 15 15 13 14 14 18 17 17 18 18 16 16 14 14 15 11
3 5 3 4 3 5 6 3 5 7 2 6 8 8 10 11 12 13 15 15 15 17 18 18 19 19 20 20 18 18 18 19 16 18 16 14 18 15 19 19 19 20 19 18 18 15 15 14 12
3 4 4 1 6 9 5 4 5 8 1 6 8 10 10 11 12 13 13 14 14 15 14 15 15 16 16 16 16 17 19 20 19 17 18 19 18 20 21 21 19 18 19 20 19 16 14 19 11
1 3 5 3 3 5 5 5 5 6 3 4 7 8 8 9 10 11 12 12 14 14 14 14 15 16 16 16 15 16 16 17 17 17 19 19 19 21 21 20 20 19 19 19 20 20 19 19 12
3 3 1 4 4 3 4 7 5 5 4 2 5 5 8 9 10 10 11 12 13 13 13 15 14 15 15 15 16 18 16 19 19 17 20 20 21 20 20 20 21 20 21 19 21 22 19 19 14
Wind_Direction
123 119 126 233 233 324 49 48 323 312 202 106 164 195 193 31 333 349 6 159 149 149 148 151 149 149 142 140 134 131 131 131 133 134 133 131 127 123 121 119 117 114 110 107 101 92 86 81 74
134 125 177 57 349 31 50 32 56 331 310 208 236 178 176 87 79 94 127 136 151 144 147 155 146 151 144 141 138 135 134 138 140 139 138 135 133 131 132 128 124 121 116 110 100 89 77 63 51
130 162 288 30 56 18 9 40 335 79 123 193 180 20 46 24 46 116 97 140 146 145 147 156 146 154 147 143 142 141 139 144 145 145 143 142 142 139 141 137 132 126 120 112 101 85 66 42 16
158 156 126 330 8 33 324 335 297 209 208 106 33 79 94 47 55 113 135 143 148 142 154 155 142 154 154 145 145 147 146 149 149 151 152 150 150 148 151 148 139 134 126 112 94 73 28 2 339
64 95 340 355 337 294 294 300 255 187 121 86 114 100 89 56 82 119 136 148 148 149 156 153 139 152 153 152 150 152 154 153 155 159 162 159 161 165 172 174 167 157 141 105 62 15 339 332 323
85 308 309 334 341 294 292 305 244 230 46 113 122 149 93 113 128 129 137 145 141 150 147 145 145 154 160 156 156 158 157 159 164 170 173 174 179 186 197 207 213 214 263 299 310 319 319 316 306
121 269 337 295 313 333 6 326 258 132 176 95 137 126 90 160 129 136 141 142 137 151 150 160 156 162 159 166 162 168 167 171 170 180 185 190 198 206 221 232 239 249 270 290 305 310 307 301 296
124 166 196 231 354 354 338 326 309 90 56 98 168 102 119 151 140 135 140 144 147 158 164 169 173 167 179 173 173 180 180 181 180 188 197 201 211 224 231 252 236 270 285 293 301 300 296 291 291
179 183 233 240 229 342 335 340 95 77 145 115 108 75 88 134 137 131 132 143 159 164 170 187 180 181 184 182 178 187 192 192 194 199 205 209 218 215 225 249 283 276 283 290 293 293 294 298 275
183 204 229 172 244 300 315 324 352 295 58 24 346 50 62 75 78 79 84 82 14 322 234 287 257 229 221 211 199 198 193 199 206 208 207 219 224 236 257 267 261 273 281 289 291 295 296 267 301
159 216 226 222 235 266 352 24 33 6 27 354 24 88 73 68 61 49 40 22 359 343 289 280 310 289 275 269 258 247 243 236 235 233 228 227 235 232 236 253 255 259 249 279 287 296 299 314 310
189 221 226 254 328 36 44 19 46 40 39 64 79 74 60 57 48 34 21 16 355 325 274 232 202 238 230 253 242 232 245 242 255 251 249 248 260 260 262 262 268 270 287 297 297 303 314 308 307
197 181 211 320 81 74 67 58 58 44 47 61 67 66 58 54 48 42 35 28 17 342 265 213 204 203 216 234 231 227 222 231 247 248 250 245 246 254 266 268 273 278 292 292 303 308 318 319 313
182 178 66 35 95 91 72 49 53 32 48 60 58 61 58 53 42 41 32 26 21 19 8 319 239 228 218 207 227 250 245 244 234 237 244 241 249 250 256 265 272 286 291 298 300 306 307 305 312
154 150 160 28 345 87 277 37 38 37 44 60 60 60 55 49 43 43 36 30 22 19 15 14 328 275 243 240 222 219 241 249 256 256 251 245 245 249 259 260 260 258 257 275 279 278 273 285 283
206 171 183 36 9 23 66 64 35 34 52 56 53 53 52 47 39 32 30 31 26 21 21 18 18 15 355 291 257 241 234 238 246 253 254 254 255 253 257 258 258 260 266 273 280 292 292 285 282
108 185 57 83 13 53 85 107 49 43 53 55 48 45 42 41 34 29 25 21 23 20 18 16 18 13 1 357 293 262 249 238 243 243 247 246 245 248 247 252 253 251 258 253 257 261 259 271 270
190 130 68 57 57 84 90 92 67 51 54 51 43 39 37 38 31 25 23 22 20 19 18 16 14 13 3 3 358 329 279 273 258 252 248 243 242 240 241 253 255 249 247 250 249 251 239 237 230
105 104 114 134 130 67 86 85 64 49 49 43 36 30 28 27 27 25 22 20 19 20 18 16 9 7 5 3 2 355 352 321 299 283 267 251 243 241 240 249 250 245 247 244 233 239 240 232 213
122 122 117 65 110 105 110 87 74 56 51 44 33 27 20 14 17 17 17 18 20 17 16 15 12 8 5 0 351 333 313 350 12 7 356 329 300 275 258 246 246 241 245 235 230 231 237 246 200
160 159 166 138 113 131 128 96 85 70 57 45 38 28 25 16 9 7 10 15 14 16 12 11 10 6 10 4 349 352 352 352 1 358 345 344 336 331 320 302 299 284 265 275 263 248 239 244 225
182 194 151 147 153 172 215 141 165 62 45 34 26 21 15 12 11 7 4 8 9 9 7 9 9 7 9 7 6 8 5 347 336 328 324 325 329 328 341 341 323 302 288 268 275 262 254 243 251
224 160 168 169 151 141 170 217 110 78 27 17 16 15 13 12 10 5 6 5 4 3 6 5 5 7 7 7 7 0 355 339 327 327 324 323 323 329 324 324 310 301 293 282 270 262 255 247 241
121 127 111 165 187 228 144 250 147 158 34 5 11 12 10 10 10 7 7 6 5 5 5 2 2 5 6 5 3 358 350 342 337 336 328 326 322 317 317 320 315 311 296 280 273 260 251 246 234
133 160 133 186 212 246 112 214 65 129 77 21 3 4 8 11 9 7 9 6 5 4 3 359 0 358 359 359 358 356 350 340 335 332 328 325 319 318 319 321 314 306 301 295 283 278 258 243 229
175 231 219 212 197 175 141 174 136 136 96 34 18 5 4 7 5 5 7 2 2 1 3 359 359 355 354 353 352 350 348 341 332 331 323 315 312 312 314 309 307 302 296 289 285 285 275 255 235
152 212 27 118 100 186 128 132 167 172 83 25 17 6 5 2 360 360 360 1 357 358 360 357 356 352 352 350 347 346 344 340 333 327 318 315 310 310 308 307 301 300 295 290 285 276 279 265 229
360 89 177 140 228 245 175 207 119 187 56 18 17 10 3 358 358 358 357 356 353 356 352 351 351 350 346 345 345 337 338 337 332 325 320 316 311 308 305 302 297 293 290 290 285 278 275 272 222
50 130 59 84 339 277 243 120 125 134 105 52 11 5 6 358 359 360 358 355 354 356 358 349 349 352 349 348 341 337 339 328 327 322 318 316 309 309 304 298 292 289 285 279 278 275 272 269 221
66 92 0 259 179 48 349 115 123 124 121 29 41 357 6 358 360 359 358 354 358 355 353 352 351 350 349 344 343 345 331 335 332 325 322 315 311 306 300 295 290 287 284 274 268 271 267 263 209